NOAA 16 DEB

Satellite information

Favourite Embed

Satellite Type and Status

DEBRISIN ORBIT

Key statistics

Satellite NOAA 16 DEB at a glance.

Uptime

9109

Days in orbit

Revolutions

≈ 14.2

Per day

Orbit

SSO

Sun Synchronous Orbit

Inclination

98.7

Latest

Satellite identification and parameters

Extended collection of information and parameters for NOAA 16 DEB.

Object identification

Identified? True

Debris? True

Object name: NOAA 16 DEB

International designator: 2000-055D

Object number (NORAD): 41046

Object ID (CCSDS): 41046

Country: UNITED STATES OF AMERICA (US)

Current information (Y/N): Y

RCS size: SMALL

Orbital parameters

Period: 101.521 minutes

Inclination: 98.6508 deg

SMA: 7208.824 km

Apoapsis: 840.782 km

Periapsis: 820.597 km

RAAN: 308.1098 deg

Eccentricy: 0.00140003

Argument of periapsis: 85.6135 deg

Mean anomaly: 274.664 deg

Mean motion: 14.18424074 rev/day

Mean motion (dot): 0.00000888 rev/day2

B* drag term: 0.0004506419 1/REarth

Two-line elements (TLE)

Creation date: Aug. 29, 2025, 2:15 a.m.

Reference frame: TEME

Reference center: EARTH

Epoch: Aug. 28, 2025, 5:01 p.m. UTC

TLE line 0: 0 NOAA 16 DEB

TLE line 1: 1 41046U 00055D 25240.70932737 .00000888 00000-0 45064-3 0 9992

TLE line 2: 2 41046 98.6508 308.1098 0014000 85.6135 274.6640 14.18424074504019

Live tracking on map

Real-time ground track for satellite NOAA 16 DEB.

In-orbit conjunctions

A list of the most updated potential collisions computed for object NOAA 16 DEB.

Target Orbit TCA Probability of collision Miss distance Type
FENGYUN 1C DEB SSO 2025-03-23 15:26:20 0.0001186217 92.0 (m) DEBRIS
FENGYUN 1C DEB SSO 2025-03-22 04:28:45 0.0001367779 273.0 (m) DEBRIS
CZ-6A DEB LEO 2024-10-24 22:46:22 0.000120261 880.0 (m) DEBRIS

Associated space launch

The NOAA K, L and M POES satellites begin the fifth generation of improved environmental monitoring in support of NOAA missions. The instrument payload has significant improvements and additions/deletions. The instrument changes have effected the spacecraft subsystems and data formats.

NOAA 16 DEB was lifted into orbit during the mission ‘Titan II SLV | NOAA 16’, on board a Titan II SLV space rocket.

The launch took place on Sept. 21, 2000, 10:22 a.m. from Space Launch Complex 4W.

For more information about the launch, click the button.

Launch to space Titan II SLV | NOAA 16
Titan II SLV | NOAA 16

Agency: N/A

Status: Launch Successful

Launch date: Sept. 21, 2000, 10:22 a.m. UTC

Rocket: Titan II SLV

Launch pad: Space Launch Complex 4W

Location: Vandenberg SFB, CA, USA

...

Latest news about this satellite

There are no fresh news available about this satellite. Check back as we update our databases every day.


Newsletter sign-up

Weekly statistics, charts and insights to help you stay on top of the space industry.